Time,TemperatureF,DewpointF,PressureIn,WindDirection,WindDirectionDegrees,WindSpeedMPH,WindSpeedGustMPH,Humidity,HourlyPrecipIn,Conditions,Clouds,dailyrainin,SolarRadiationWatts/m^2,SoftwareType,DateUTC
2013-08-08 00:01:00,69.0,50.0,-100.00,West,272,11.0,25.0,50,0.00,,,0.00,0.000000,,2013-08-08 07:01:00,
2013-08-08 00:12:00,69.0,50.0,-100.00,West,272,11.0,25.0,50,0.00,,,0.00,0.000000,,2013-08-08 07:12:00,
2013-08-08 00:43:00,68.0,50.0,-100.00,West,267,11.0,25.0,52,0.00,,,-99.99,0.000000,,2013-08-08 07:43:00,
2013-08-08 00:53:00,68.0,50.0,-100.00,West,267,11.0,25.0,52,0.00,,,-99.99,0.000000,,2013-08-08 07:53:00,
2013-08-08 01:01:00,68.0,50.0,-100.00,West,267,11.0,25.0,52,0.00,,,-99.99,0.000000,,2013-08-08 08:01:00,
2013-08-08 01:11:00,68.0,50.0,-100.00,West,267,11.0,25.0,52,0.00,,,-99.99,0.000000,,2013-08-08 08:11:00,
2013-08-08 01:32:00,63.0,52.0,-100.00,WNW,300,6.0,21.0,67,0.00,,,0.00,0.000000,,2013-08-08 08:32:00,
2013-08-08 01:43:00,63.0,52.0,-100.00,WNW,300,6.0,21.0,67,0.00,,,0.00,0.000000,,2013-08-08 08:43:00,
2013-08-08 01:53:00,63.0,52.0,-100.00,WNW,300,6.0,21.0,67,0.00,,,0.00,0.000000,,2013-08-08 08:53:00,
2013-08-08 02:01:00,63.0,52.0,-100.00,WNW,300,6.0,21.0,67,0.00,,,0.00,0.000000,,2013-08-08 09:01:00,
2013-08-08 02:11:00,63.0,52.0,-100.00,WNW,300,6.0,21.0,67,0.00,,,0.00,0.000000,,2013-08-08 09:11:00,
2013-08-08 02:43:00,62.0,52.0,-100.00,NW,314,6.0,14.0,69,0.00,,,0.00,0.000000,,2013-08-08 09:43:00,
2013-08-08 02:53:00,62.0,52.0,-100.00,NW,314,6.0,14.0,69,0.00,,,0.00,0.000000,,2013-08-08 09:53:00,
2013-08-08 03:01:00,62.0,52.0,-100.00,NW,314,6.0,14.0,69,0.00,,,0.00,0.000000,,2013-08-08 10:01:00,
2013-08-08 03:11:00,62.0,52.0,-100.00,NW,314,6.0,14.0,69,0.00,,,0.00,0.000000,,2013-08-08 10:11:00,
2013-08-08 03:43:00,62.0,52.0,-100.00,NW,316,6.0,12.0,70,0.00,,,0.00,0.000000,,2013-08-08 10:43:00,
2013-08-08 03:52:00,62.0,52.0,-100.00,NW,316,6.0,12.0,70,0.00,,,0.00,0.000000,,2013-08-08 10:52:00,
2013-08-08 04:01:00,62.0,52.0,-100.00,NW,316,6.0,12.0,70,0.00,,,0.00,0.000000,,2013-08-08 11:01:00,
2013-08-08 04:11:00,62.0,52.0,-100.00,NW,316,6.0,12.0,70,0.00,,,0.00,0.000000,,2013-08-08 11:11:00,
2013-08-08 04:43:00,61.0,52.0,-100.00,NW,315,5.0,11.0,73,0.00,,,-99.99,0.000000,,2013-08-08 11:43:00,
2013-08-08 04:52:00,61.0,52.0,-100.00,NW,315,5.0,11.0,73,0.00,,,-99.99,0.000000,,2013-08-08 11:52:00,
2013-08-08 05:01:00,61.0,52.0,-100.00,NW,315,5.0,11.0,73,0.00,,,-99.99,0.000000,,2013-08-08 12:01:00,
2013-08-08 05:11:00,61.0,52.0,-100.00,NW,315,5.0,11.0,73,0.00,,,-99.99,0.000000,,2013-08-08 12:11:00,
2013-08-08 05:43:00,60.0,51.0,-100.00,WNW,300,6.0,12.0,73,0.00,,,0.00,0.000000,,2013-08-08 12:43:00,
2013-08-08 05:53:00,60.0,51.0,-100.00,WNW,300,6.0,12.0,73,0.00,,,0.00,0.000000,,2013-08-08 12:53:00,
2013-08-08 06:01:00,60.0,51.0,-100.00,WNW,300,6.0,12.0,73,0.00,,,0.00,0.000000,,2013-08-08 13:01:00,
2013-08-08 06:11:00,60.0,51.0,-100.00,WNW,300,6.0,12.0,73,0.00,,,0.00,0.000000,,2013-08-08 13:11:00,
2013-08-08 06:43:00,59.0,51.0,-100.00,NW,305,7.0,19.0,76,0.00,,,0.00,2.000000,,2013-08-08 13:43:00,
2013-08-08 06:53:00,59.0,51.0,-100.00,NW,305,7.0,19.0,76,0.00,,,0.00,2.000000,,2013-08-08 13:53:00,
2013-08-08 07:02:00,59.0,51.0,-100.00,NW,305,7.0,19.0,76,0.00,,,0.00,2.000000,,2013-08-08 14:02:00,
2013-08-08 07:11:00,59.0,51.0,-100.00,NW,305,7.0,19.0,76,0.00,,,0.00,2.000000,,2013-08-08 14:11:00,
2013-08-08 07:43:00,60.0,52.0,-100.00,NW,313,8.0,17.0,74,0.00,,,0.00,53.000000,,2013-08-08 14:43:00,
2013-08-08 07:53:00,60.0,52.0,-100.00,NW,313,8.0,17.0,74,0.00,,,0.00,53.000000,,2013-08-08 14:53:00,
2013-08-08 08:02:00,60.0,52.0,-100.00,NW,313,8.0,17.0,74,0.00,,,0.00,53.000000,,2013-08-08 15:02:00,
2013-08-08 08:11:00,60.0,52.0,-100.00,NW,313,8.0,17.0,74,0.00,,,0.00,53.000000,,2013-08-08 15:11:00,
2013-08-08 08:43:00,64.0,53.0,-100.00,NW,310,7.0,18.0,67,0.00,,,0.00,234.000000,,2013-08-08 15:43:00,
2013-08-08 08:53:00,64.0,53.0,-100.00,NW,310,7.0,18.0,67,0.00,,,0.00,234.000000,,2013-08-08 15:53:00,
2013-08-08 09:01:00,64.0,53.0,-100.00,NW,310,7.0,18.0,67,0.00,,,0.00,234.000000,,2013-08-08 16:01:00,
2013-08-08 09:11:00,64.0,53.0,-100.00,NW,310,7.0,18.0,67,0.00,,,0.00,234.000000,,2013-08-08 16:11:00,
2013-08-08 09:42:00,66.0,54.0,-100.00,NW,325,9.0,16.0,65,0.00,,,0.00,352.000000,,2013-08-08 16:42:00,
2013-08-08 09:52:00,66.0,54.0,-100.00,NW,325,9.0,16.0,65,0.00,,,0.00,352.000000,,2013-08-08 16:52:00,
2013-08-08 10:01:00,66.0,54.0,-100.00,NW,325,9.0,16.0,65,0.00,,,0.00,352.000000,,2013-08-08 17:01:00,
2013-08-08 10:11:00,66.0,54.0,-100.00,NW,325,9.0,16.0,65,0.00,,,0.00,352.000000,,2013-08-08 17:11:00,
2013-08-08 10:43:00,68.0,54.0,-100.00,NNW,336,10.0,16.0,60,0.00,,,0.00,671.000000,,2013-08-08 17:43:00,
2013-08-08 10:52:00,68.0,54.0,-100.00,NNW,336,10.0,16.0,60,0.00,,,0.00,671.000000,,2013-08-08 17:52:00,
2013-08-08 11:01:00,68.0,54.0,-100.00,NNW,336,10.0,16.0,60,0.00,,,0.00,671.000000,,2013-08-08 18:01:00,
2013-08-08 11:11:00,68.0,54.0,-100.00,NNW,336,10.0,16.0,60,0.00,,,0.00,671.000000,,2013-08-08 18:11:00,
2013-08-08 11:43:00,73.0,54.0,-100.00,NW,320,8.0,15.0,52,0.00,,,0.00,835.000000,,2013-08-08 18:43:00,
2013-08-08 11:52:00,73.0,54.0,-100.00,NW,320,8.0,15.0,52,0.00,,,0.00,835.000000,,2013-08-08 18:52:00,
2013-08-08 12:01:00,73.0,54.0,-100.00,NW,320,8.0,15.0,52,0.00,,,0.00,835.000000,,2013-08-08 19:01:00,
2013-08-08 12:11:00,73.0,54.0,-100.00,NW,320,8.0,15.0,52,0.00,,,0.00,835.000000,,2013-08-08 19:11:00,
2013-08-08 12:43:00,77.0,55.0,-100.00,NW,315,7.0,14.0,47,0.00,,,0.00,937.000000,,2013-08-08 19:43:00,
2013-08-08 12:57:00,77.0,55.0,-100.00,NW,315,7.0,14.0,47,0.00,,,0.00,937.000000,,2013-08-08 19:57:00,
2013-08-08 13:11:00,77.0,55.0,-100.00,NW,315,7.0,14.0,47,0.00,,,0.00,937.000000,,2013-08-08 20:11:00,
2013-08-08 13:42:00,79.0,54.0,-100.00,NW,304,6.0,15.0,42,0.00,,,-99.99,982.000000,,2013-08-08 20:42:00,
2013-08-08 13:52:00,79.0,54.0,-100.00,NW,304,6.0,15.0,42,0.00,,,-99.99,982.000000,,2013-08-08 20:52:00,
2013-08-08 14:01:00,79.0,54.0,-100.00,NW,304,6.0,15.0,42,0.00,,,-99.99,982.000000,,2013-08-08 21:01:00,
2013-08-08 14:34:00,81.0,56.0,-100.00,NW,324,7.0,14.0,43,0.00,,,-99.99,986.000000,,2013-08-08 21:34:00,
2013-08-08 14:45:00,81.0,56.0,-100.00,NW,324,7.0,14.0,43,0.00,,,-99.99,986.000000,,2013-08-08 21:45:00,
2013-08-08 14:56:00,81.0,56.0,-100.00,NW,324,7.0,14.0,43,0.00,,,-99.99,986.000000,,2013-08-08 21:56:00,
2013-08-08 15:03:00,81.0,56.0,-100.00,NW,324,7.0,14.0,43,0.00,,,-99.99,986.000000,,2013-08-08 22:03:00,
2013-08-08 15:49:00,82.0,55.0,-100.00,NW,308,6.0,14.0,39,0.00,,,0.00,793.000000,,2013-08-08 22:49:00,
2013-08-08 15:56:00,82.0,55.0,-100.00,NW,308,6.0,14.0,39,0.00,,,0.00,793.000000,,2013-08-08 22:56:00,
2013-08-08 16:03:00,82.0,55.0,-100.00,NW,308,6.0,14.0,39,0.00,,,0.00,793.000000,,2013-08-08 23:03:00,
2013-08-08 16:12:00,82.0,55.0,-100.00,NW,308,6.0,14.0,39,0.00,,,0.00,793.000000,,2013-08-08 23:12:00,
2013-08-08 16:49:00,80.0,55.0,-100.00,NW,315,6.0,14.0,43,0.00,,,0.00,473.000000,,2013-08-08 23:49:00,
2013-08-08 16:57:00,80.0,55.0,-100.00,NW,315,6.0,14.0,43,0.00,,,0.00,473.000000,,2013-08-08 23:57:00,
2013-08-08 17:02:00,80.0,55.0,-100.00,NW,315,6.0,14.0,43,0.00,,,0.00,473.000000,,2013-08-09 00:02:00,
2013-08-08 17:12:00,80.0,55.0,-100.00,NW,315,6.0,14.0,43,0.00,,,0.00,473.000000,,2013-08-09 00:12:00,
2013-08-08 17:48:00,82.0,57.0,-100.00,NW,306,7.0,14.0,42,0.00,,,0.00,258.000000,,2013-08-09 00:48:00,
2013-08-08 17:55:00,82.0,57.0,-100.00,NW,306,7.0,14.0,42,0.00,,,0.00,258.000000,,2013-08-09 00:55:00,
2013-08-08 18:01:00,82.0,57.0,-100.00,NW,306,7.0,14.0,42,0.00,,,0.00,258.000000,,2013-08-09 01:01:00,
2013-08-08 18:12:00,82.0,57.0,-100.00,NW,306,7.0,14.0,42,0.00,,,0.00,258.000000,,2013-08-09 01:12:00,
2013-08-08 18:46:00,77.0,56.0,-100.00,NW,306,6.0,15.0,49,0.00,,,0.00,186.000000,,2013-08-09 01:46:00,
2013-08-08 18:59:00,77.0,56.0,-100.00,NW,306,6.0,15.0,49,0.00,,,0.00,186.000000,,2013-08-09 01:59:00,
2013-08-08 19:47:00,76.0,57.0,-100.00,NW,305,6.0,13.0,52,0.00,,,0.00,162.000000,,2013-08-09 02:47:00,
2013-08-08 19:56:00,76.0,57.0,-100.00,NW,305,6.0,13.0,52,0.00,,,0.00,162.000000,,2013-08-09 02:56:00,
2013-08-08 20:04:00,76.0,57.0,-100.00,NW,305,6.0,13.0,52,0.00,,,0.00,162.000000,,2013-08-09 03:04:00,
2013-08-08 20:12:00,76.0,57.0,-100.00,NW,305,6.0,13.0,52,0.00,,,0.00,162.000000,,2013-08-09 03:12:00,
2013-08-08 20:47:00,70.0,57.0,-100.00,NW,311,5.0,12.0,64,0.00,,,0.00,38.000000,,2013-08-09 03:47:00,
2013-08-08 20:55:00,70.0,57.0,-100.00,NW,311,5.0,12.0,64,0.00,,,0.00,38.000000,,2013-08-09 03:55:00,
2013-08-08 21:01:00,70.0,57.0,-100.00,NW,311,5.0,12.0,64,0.00,,,0.00,38.000000,,2013-08-09 04:01:00,
2013-08-08 21:12:00,70.0,57.0,-100.00,NW,311,5.0,12.0,64,0.00,,,0.00,38.000000,,2013-08-09 04:12:00,
2013-08-08 21:33:00,69.0,55.0,-100.00,WNW,282,7.0,12.0,61,0.00,,,0.00,1.000000,,2013-08-09 04:33:00,
2013-08-08 21:43:00,69.0,55.0,-100.00,WNW,282,7.0,12.0,61,0.00,,,0.00,1.000000,,2013-08-09 04:43:00,
2013-08-08 21:53:00,69.0,55.0,-100.00,WNW,282,7.0,12.0,61,0.00,,,0.00,1.000000,,2013-08-09 04:53:00,
2013-08-08 22:01:00,69.0,55.0,-100.00,WNW,282,7.0,12.0,61,0.00,,,0.00,1.000000,,2013-08-09 05:01:00,
2013-08-08 22:11:00,69.0,55.0,-100.00,WNW,282,7.0,12.0,61,0.00,,,0.00,1.000000,,2013-08-09 05:11:00,
2013-08-08 22:43:00,68.0,56.0,-100.00,WNW,293,5.0,16.0,65,0.00,,,0.00,0.000000,,2013-08-09 05:43:00,
2013-08-08 22:52:00,68.0,56.0,-100.00,WNW,293,5.0,16.0,65,0.00,,,0.00,0.000000,,2013-08-09 05:52:00,
2013-08-08 23:01:00,68.0,56.0,-100.00,WNW,293,5.0,16.0,65,0.00,,,0.00,0.000000,,2013-08-09 06:01:00,
2013-08-08 23:11:00,68.0,56.0,-100.00,WNW,293,5.0,16.0,65,0.00,,,0.00,0.000000,,2013-08-09 06:11:00,
2013-08-08 23:43:00,67.0,55.0,-100.00,WNW,284,7.0,13.0,66,0.00,,,0.00,0.000000,,2013-08-09 06:43:00,
2013-08-08 23:52:00,67.0,55.0,-100.00,WNW,284,7.0,13.0,66,0.00,,,0.00,0.000000,,2013-08-09 06:52:00,